Regional Weather Roundup
Issued by NWS

Home | Current Version | Previous Version | Text Only | Print | Product List | Glossary Off
Versions: 1 2 3 4 5 6 7 8 9 10 11 12 13 14 15 16 17 18 19 20 21 22 23 24 25 26 27 28 29 30 31 32 33 34 35 36 37 38 39 40 41 42 43 44 45 46 47 48 49 50

000
ASUS44 KMEG 301610
RWRTN
TENNESSEE HOURLY STATE WEATHER ROUNDUP
NATIONAL WEATHER SERVICE MEMPHIS TN
1100 AM CDT WED JUL 30 2014

TNZ002-004-019-021-049-052-054-088>092-301700-
WEST TENNESSEE

CITY           SKY/WX    TMP DP  RH WIND       PRES   REMARKS
MEMPHIS INTL   FAIR      79  55  43 S8        30.13S
NWS MEMPHIS      N/A     78 N/A N/A MISG        N/A
JACKSON        FAIR      76  54  46 CALM      30.14R
DYERSBURG      MOSUNNY   79  54  41 SE3       30.14S
UNION CITY     SUNNY     77  59  53 S3        30.13R
PARIS          CLOUDY    74  54  49 W3        30.15R
LEXINGTON      SUNNY     75  57  53 E5        30.13S
SAVANNAH       FAIR      77  61  57 CALM      30.14S
$$

TNZ008-025-027-028-033-062-065-066-301700-
NORTH MIDDLE TENNESSEE

CITY           SKY/WX    TMP DP  RH WIND       PRES   REMARKS
NASHVILLE      CLOUDY    77  58  51 VRB5      30.14R
DICKSON        PTSUNNY   73  55  53 VRB3      30.14S
PORTLAND       MOSUNNY   73  57  56 VRB7      30.13R
CLARKSVILLE    CLOUDY    77  55  46 MISG      30.13S
LEBANON        PTSUNNY   74  57  55 VRB3      30.12R
SMYRNA         MOSUNNY   79  61  53 VRB6      30.14R
MURFREESBORO   PTSUNNY   74  58  57 NE3       30.13R
COOKEVILLE     SUNNY     72  59  64 E3        30.14S
LIVINGSTON       N/A     71  57  61 NE3       30.15R
CROSSVILLE     SUNNY     72  53  51 NE7       30.16S
$$

TNZ061-075-076-078-094-096-097-301700-
SOUTH MIDDLE TENNESSEE

CITY           SKY/WX    TMP DP  RH WIND       PRES   REMARKS
LEWISBURG      PTSUNNY   75  57  53 N6        30.13S
FAYETTEVILLE   SUNNY     72  55  56 NE9       30.13S
TULLAHOMA      SUNNY     72  55  56 N7        30.14F
WINCHESTER     SUNNY     73  57  56 CALM      30.13F
MCMINNVILLE    SUNNY     73  61  64 N6        30.14S
COLUMBIA       SUNNY     77  61  57 CALM      30.13R
SHELBYVILLE    SUNNY     73  59  60 NE6       30.15R
$$

TNZ017-018-042-046-047-301700-
NORTHEAST TENNESSEE

CITY           SKY/WX    TMP DP  RH WIND       PRES   REMARKS
TRI CITIES     MOSUNNY   70  51  51 CALM      30.15S
ELIZABETHTON   SUNNY     70  52  52 CALM        N/A
$$

TNZ012-013-036-069-073-074-301700-
CENTRAL EAST TENNESSEE

CITY           SKY/WX    TMP DP  RH WIND       PRES   REMARKS
KNOXVILLE      MOSUNNY   72  54  53 NE8       30.12R
OAK RIDGE      SUNNY     73  54  51 NE5       30.14S
GATLINBURG     SUNNY     72  54  53 NE6       30.12S
MORRISTOWN     SUNNY     70  54  56 VRB6      30.15S
$$

TNZ083-085-099-301700-
SOUTHEAST TENNESSEE

CITY           SKY/WX    TMP DP  RH WIND       PRES   REMARKS
CHATTANOOGA    PTSUNNY   75  54  47 NE9       30.12S
$$

SKY/WX REPORTED AS FAIR MEANS FEW OR NO CLOUDS BELOW
12 THOUSAND FEET.



USA.gov is the U.S. government's official web portal to all federal, state and local government web resources and services.